Tracking 19847 objects as of 15-Sep-2019
HD Live streaming from Space Station
objects crossing your sky now

EXPLORER 36 (GEOS 2)

Track EXPLORER 36 (GEOS 2) now!
10-day predictions
EXPLORER 36 (GEOS 2) is classified as:


NORAD ID: 3093
Int'l Code: 1968-002A
Perigee: 1,089.0 km
Apogee: 1,579.9 km
Inclination: 105.8 °
Period: 112.2 minutes
Semi major axis: 7705 km
RCS: 1.4776 m2 (large)
Launch date: January 11, 1968
Source: United States (US)
Launch site: AIR FORCE WESTERN TEST RANGE (AFWTR)
aabbcc
Your satellite tracking list
Your tracking list is empty




NASA's NSSDC Master Catalog

Two Line Element Set (TLE):
1  3093U 68002A   19257.91065726 -.00000076 +00000-0 -54436-5 0  9993
2  3093 105.7834 202.2664 0318494 150.0868 256.4008 12.83531166420786
Source of the keplerian elements: AFSPC